Weather History for KLRU - May, 2013

Change the Weather History Date:

Friday, May 31, 2013

  Actual Average Record
Temperature  
Mean Temperature 78 °F -  
Max Temperature 94 °F 90 °F 98 °F (2002)
Min Temperature 63 °F 60 °F 55 °F (2011)
Cooling Degree Days 14    
Growing Degree Days 28 (Base 50)    
Moisture  
Dew Point 31 °F    
Average Humidity 18    
Maximum Humidity 29    
Minimum Humidity 10    
Precipitation  
Precipitation 0.00 in - - ()
Sea Level Pressure  
Sea Level Pressure 29.95 in    
Wind  
Wind Speed 11 mph (WSW)    
Max Wind Speed 22 mph    
Max Gust Speed 28 mph    
Visibility 10 miles    
Events      
Averages and records for this station are not official NWS values.
T = Trace of Precipitation, MM = Missing Value Source: NWS Daily Summary

Daily Weather History Graph

Daily Weather History Graph

Search for Another Location

Airport or City:

Trip Planner

Search our weather history database for the weather conditions in past years. The results will help you decide how hot, cold, wet, or windy it might be!

Date:

Astronomy

May. 31, 2013 Rise Set
Actual Time 6:01 AM MDT 8:09 PM MDT
Civil Twilight 5:33 AM MDT 8:37 PM MDT
Nautical Twilight 5:00 AM MDT 9:11 PM MDT
Astronomical Twilight 4:23 AM MDT 9:47 PM MDT
Moon 1:01 AM MDT (5/31) 1:02 PM MDT (5/31)
Length of Visible Light 15h 03m
Length of Day
14h 07m
Waning Gibbous, 51% of the Moon is Illuminated
May 31
Waning Gibbous
May 31
Last Quarter
Jun 8
New
Jun 16
First Quarter
Jun 23
Full

Hourly Weather History & Observations

Time (MDT) Temp. Dew Point Humidity Pressure Visibility Wind Dir Wind Speed Gust Speed Precip Events Conditions
12:15 AM 72.3 °F 30.6 °F 21% 29.94 in 10.0 mi South 5.8 mph - N/A   Clear
12:35 AM 73.9 °F 31.8 °F 21% 29.94 in 10.0 mi WSW 9.2 mph - N/A   Clear
12:55 AM 72.3 °F 32.0 °F 23% 29.94 in 10.0 mi WSW 8.1 mph - N/A   Clear
1:15 AM 69.8 °F 31.6 °F 24% 29.94 in 10.0 mi South 8.1 mph - N/A   Clear
1:35 AM 71.2 °F 32.0 °F 24% 29.94 in 10.0 mi SSW 6.9 mph - N/A   Clear
1:55 AM 71.6 °F 32.0 °F 23% 29.94 in 10.0 mi WSW 11.5 mph 16.1 mph N/A   Clear
2:15 AM 70.2 °F 31.8 °F 24% 29.94 in 10.0 mi WSW 11.5 mph - N/A   Clear
2:35 AM 70.5 °F 31.5 °F 24% 29.95 in 10.0 mi WSW 12.7 mph 17.3 mph N/A   Clear
2:55 AM 69.1 °F 30.9 °F 24% 29.95 in 10.0 mi WSW 10.4 mph - N/A   Clear
3:15 AM 67.3 °F 30.9 °F 26% 29.94 in 10.0 mi WSW 10.4 mph - N/A   Clear
3:35 AM 67.3 °F 30.7 °F 26% 29.95 in 10.0 mi WSW 9.2 mph - N/A   Clear
3:55 AM 66.9 °F 30.7 °F 26% 29.95 in 10.0 mi WSW 10.4 mph - N/A   Clear
4:15 AM 65.8 °F 30.4 °F 27% 29.95 in 10.0 mi WSW 10.4 mph - N/A   Clear
4:35 AM 64.4 °F 30.2 °F 28% 29.96 in 10.0 mi WSW 8.1 mph - N/A   Clear
4:55 AM 63.9 °F 30.2 °F 28% 29.97 in 10.0 mi WSW 10.4 mph - N/A   Clear
5:15 AM 64.4 °F 30.2 °F 28% 29.96 in 10.0 mi West 13.8 mph - N/A   Clear
5:35 AM 65.3 °F 30.7 °F 27% 29.96 in 10.0 mi West 16.1 mph - N/A   Clear
5:55 AM 65.3 °F 31.1 °F 28% 29.98 in 10.0 mi West 16.1 mph - N/A   Clear
6:15 AM 64.6 °F 31.1 °F 29% 29.99 in 10.0 mi West 13.8 mph - N/A   Clear
6:35 AM 64.4 °F 31.1 °F 29% 29.99 in 10.0 mi West 12.7 mph - N/A   Clear
6:55 AM 65.3 °F 31.5 °F 28% 30.00 in 10.0 mi West 11.5 mph - N/A   Clear
7:15 AM 66.7 °F 32.0 °F 27% 30.01 in 10.0 mi WSW 11.5 mph - N/A   Clear
7:35 AM 68.4 °F 32.0 °F 26% 30.02 in 10.0 mi WNW 6.9 mph - N/A   Clear
7:55 AM 70.2 °F 32.0 °F 24% 30.02 in 10.0 mi WSW 12.7 mph - N/A   Clear
8:15 AM 72.3 °F 32.2 °F 23% 30.03 in 10.0 mi West 10.4 mph - N/A   Clear
8:35 AM 74.3 °F 32.4 °F 21% 30.03 in 10.0 mi West 10.4 mph - N/A   Clear
8:55 AM 77.0 °F 33.1 °F 20% 30.03 in 10.0 mi West 10.4 mph - N/A   Clear
9:15 AM 78.4 °F 33.3 °F 19% 30.03 in 10.0 mi West 8.1 mph - N/A   Clear
9:35 AM 78.8 °F 32.9 °F 19% 30.03 in 10.0 mi West 6.9 mph - N/A   Scattered Clouds
9:55 AM 79.7 °F 32.5 °F 18% 30.03 in 10.0 mi West 3.5 mph - N/A   Scattered Clouds
10:15 AM 82.0 °F 32.5 °F 17% 30.02 in 10.0 mi West 15.0 mph 18.4 mph N/A   Clear
10:35 AM 84.0 °F 31.5 °F 15% 30.01 in 10.0 mi WNW 10.4 mph 17.3 mph N/A   Clear
10:55 AM 84.4 °F 31.1 °F 15% 30.01 in 5.0 mi West 10.4 mph - N/A   Haze
11:15 AM 86.4 °F 30.9 °F 14% 30.00 in 10.0 mi NW 5.8 mph - N/A   Clear
11:35 AM 87.1 °F 31.8 °F 14% 30.00 in 10.0 mi West 12.7 mph 20.7 mph N/A   Clear
11:55 AM 88.2 °F 31.6 °F 13% 30.00 in 10.0 mi West 11.5 mph 21.9 mph N/A   Clear
12:15 PM 87.8 °F 31.3 °F 13% 29.99 in 10.0 mi NW 5.8 mph 11.5 mph N/A   Clear
12:35 PM 89.2 °F 30.4 °F 12% 29.98 in 10.0 mi WNW 12.7 mph 17.3 mph N/A   Clear
12:55 PM 88.7 °F 30.6 °F 12% 29.98 in 10.0 mi WNW 8.1 mph - N/A   Clear
1:15 PM 90.1 °F 31.1 °F 12% 29.97 in 10.0 mi West 16.1 mph 19.6 mph N/A   Clear
1:35 PM 91.6 °F 30.7 °F 11% 29.96 in 10.0 mi WSW 16.1 mph 26.5 mph N/A   Clear
1:55 PM 91.0 °F 30.6 °F 12% 29.95 in 10.0 mi West 15.0 mph 20.7 mph N/A   Clear
2:15 PM 91.2 °F 29.7 °F 11% 29.95 in 10.0 mi SW 10.4 mph 24.2 mph N/A   Clear
2:35 PM 92.3 °F 30.9 °F 11% 29.94 in 10.0 mi SW 16.1 mph - N/A   Clear
2:55 PM 92.5 °F 30.7 °F 11% 29.93 in 10.0 mi SW 13.8 mph 17.3 mph N/A   Clear
3:15 PM 92.5 °F 30.6 °F 11% 29.92 in 10.0 mi WSW 16.1 mph - N/A   Clear
3:35 PM 93.0 °F 31.1 °F 11% 29.91 in 10.0 mi WSW 9.2 mph 26.5 mph N/A   Clear
3:55 PM 94.1 °F 31.1 °F 11% 29.91 in 10.0 mi West 15.0 mph 23.0 mph N/A   Clear
4:15 PM 94.5 °F 31.3 °F 11% 29.90 in 10.0 mi WSW 20.7 mph 25.3 mph N/A   Clear
4:35 PM 93.7 °F 30.2 °F 10% 29.90 in 10.0 mi SW 18.4 mph 23.0 mph N/A   Clear
4:55 PM 93.7 °F 29.8 °F 10% 29.88 in 10.0 mi West 17.3 mph 25.3 mph N/A   Clear
5:15 PM 93.6 °F 29.5 °F 10% 29.88 in 10.0 mi WSW 12.7 mph 18.4 mph N/A   Clear
5:35 PM 93.6 °F 30.4 °F 11% 29.88 in 10.0 mi WSW 17.3 mph 25.3 mph N/A   Clear
5:55 PM 93.4 °F 30.0 °F 11% 29.87 in 10.0 mi West 16.1 mph 21.9 mph N/A   Clear
6:15 PM 93.2 °F 30.2 °F 11% 29.87 in 10.0 mi West 17.3 mph 23.0 mph N/A   Clear
6:35 PM 92.5 °F 29.8 °F 11% 29.87 in 10.0 mi WSW 16.1 mph 26.5 mph N/A   Clear
6:55 PM 91.4 °F 30.0 °F 11% 29.87 in 10.0 mi WSW 21.9 mph 27.6 mph N/A   Clear
7:15 PM 90.9 °F 30.4 °F 12% 29.88 in 10.0 mi WSW 17.3 mph 24.2 mph N/A   Clear
7:35 PM 89.6 °F 31.5 °F 13% 29.88 in 10.0 mi West 20.7 mph 26.5 mph N/A   Clear
7:55 PM 88.7 °F 30.2 °F 12% 29.88 in 10.0 mi WSW 18.4 mph 25.3 mph N/A   Clear
8:15 PM 87.3 °F 30.0 °F 13% 29.88 in 10.0 mi WSW 15.0 mph 21.9 mph N/A   Clear
8:35 PM 86.2 °F 30.4 °F 13% 29.88 in 10.0 mi WSW 13.8 mph - N/A   Clear
8:55 PM 85.1 °F 30.7 °F 14% 29.88 in 10.0 mi WSW 13.8 mph - N/A   Clear
9:15 PM 84.2 °F 31.5 °F 15% 29.90 in 10.0 mi WSW 12.7 mph - N/A   Clear
9:35 PM 82.8 °F 31.1 °F 15% 29.90 in 10.0 mi WSW 10.4 mph - N/A   Clear
9:55 PM 82.4 °F 31.3 °F 16% 29.91 in 10.0 mi West 11.5 mph - N/A   Clear
10:15 PM 81.7 °F 32.9 °F 17% 29.92 in 10.0 mi West 11.5 mph - N/A   Clear
10:35 PM 81.7 °F 34.3 °F 18% 29.92 in 10.0 mi West 16.1 mph 20.7 mph N/A   Clear
10:55 PM 81.0 °F 35.2 °F 19% 29.92 in 10.0 mi West 16.1 mph - N/A   Clear
11:15 PM 81.3 °F 35.4 °F 19% 29.93 in 10.0 mi West 17.3 mph - N/A   Clear
11:35 PM 80.8 °F 35.1 °F 19% 29.94 in 10.0 mi West 12.7 mph - N/A   Clear
11:55 PM 78.8 °F 34.3 °F 20% 29.94 in 10.0 mi West 10.4 mph - N/A   Clear